Location: Invercargill
(46.4000°S, 168.3500°E)
Time: 03:13:53
(UTC+12:00)

Transit 2A Rocket - Visible Passes

Search period start: 17 July 2019 00:00
Search period end: 27 July 2019 00:00
Orbit: 588 x 915 km, 66.7° (Epoch: 16 July)

Date Brightness Start Highest point End Pass type
(mag) Time Alt. Az. Time Alt. Az. Time Alt. Az.
17 Jul 7.2 19:22:11 10° SW 19:24:20 13° SSW 19:26:35 10° S visible
18 Jul 6.9 18:38:12 10° WSW 18:41:19 18° SW 18:44:36 10° S visible
19 Jul 6.5 17:54:39 10° W 17:58:25 25° SW 18:02:26 10° SSE visible
20 Jul 7.3 18:58:27 10° SW 18:59:44 11° SSW 19:01:01 10° S visible
21 Jul 7.1 18:14:02 10° WSW 18:16:38 14° SSW 18:19:20 10° S visible
